Regional Weather Roundup
Issued by NWS

Home | Current Version | Previous Version | Graphics & Text | Print | Product List | Glossary Off
Versions: 1 2 3 4 5 6 7 8 9 10 11 12 13 14 15 16 17 18 19 20 21 22 23 24 25 26 27 28 29 30 31 32 33 34 35 36 37 38 39 40 41 42 43 44 45 46 47 48 49 50

744
ASUS43 KDMX 090201
RWRIA

WEATHER ROUNDUP FOR IOWA
NATIONAL WEATHER SERVICE DES MOINES IA
800 PM CST THU DEC 08 2016

NOTE: "FAIR" INDICATES FEW OR NO CLOUDS BELOW 12,000 FEET WITH NO
SIGNIFICANT WEATHER AND/OR OBSTRUCTIONS TO VISIBILITY.

* - THESE STATIONS ARE NOT NWS STATIONS...THUS NOT UNDER NWS
QUALITY CONTROL.  THEY ALSO DO NOT REPORT WEATHER SUCH
AS PRECIPITATION OR FOG.

IAZ001>003-012>014-020>022-031>034-043>046-090300-
   NORTHWEST IOWA

CITY           SKY/WX    TMP DP  RH WIND       PRES   REMARKS
CARROLL *      CLEAR     18  10  73 NW13G18   30.57S WCI   4
CHEROKEE *     CLEAR     15   8  75 NW10      30.59R WCI   2
DENISON *      CLEAR     14   9  79 NW9       30.58R WCI   2
LE MARS *      CLEAR     14   7  73 NW9       30.63R WCI   2
ORANGE CITY *  CLEAR     10   9  92 NW7       30.58S WCI   0
SHELDON *      CLEAR     12   9  85 NW13G18   30.56S WCI  -3
SIOUX CITY     CLEAR     16   7  67 NW10      30.64R WCI   4
SPENCER        CLEAR     13   8  81 W21       30.56R WCI  -5
STORM LAKE *   CLEAR     14   9  79 NW14      30.55S WCI  -1
$$

IAZ055>058-069>071-079>083-090>094-090300-
   SOUTHWEST IOWA

CITY           SKY/WX    TMP DP  RH WIND       PRES   REMARKS
ATLANTIC *     CLEAR     18   9  68 NW8G15    30.61R WCI   7
AUDUBON *      CLEAR     16   9  73 W6        30.58S WCI   7
CLARINDA *     CLEAR     18  10  73 NW9       30.64S WCI   6
COUNCIL BLFS * CLEAR     18   9  68 NW10      30.61S WCI   6
CRESTON *      CLEAR     16   9  73 NW9       30.59R WCI   4
HARLAN  *      CLEAR     14   9  79 W10       30.64R WCI   1
LAMONI         CLEAR     15   9  76 W9        30.58R WCI   3
RED OAK *      CLEAR     16   9  73 NW8       30.63R WCI   5
SHENANDOAH *   CLEAR     18   9  68 NW6       30.65R WCI   9
$$

IAZ047>049-059>061-072>074-084-090300-
   CENTRAL IOWA

CITY           SKY/WX    TMP DP  RH WIND       PRES   REMARKS
AMES           MOCLDY    20  13  74 NW10      30.55R WCI   9
ANKENY *       CLOUDY    19  10  68 NW12G17   30.57S WCI   7
BOONE *        MOCLDY    18  10  73 W8        30.54R WCI   7
CHARITON *     CLEAR     18  10  73 W8        30.56S WCI   7
DES MOINES     PTCLDY    20   9  62 NW16      30.56S WCI   6
GRINNELL*      CLOUDY    22  14  71 NW13G18   30.53R WCI  10
KNOXVILLE *    CLOUDY    19  10  68 W10       30.54S WCI   8
MARSHALLTOWN   CLOUDY    20  13  74 NW15      30.52R WCI   6
NEWTON *       CLOUDY    21  12  68 W10       30.53S WCI  10
PELLA *        CLOUDY    22  13  67 W10       30.56S WCI  11
PERRY *          N/A     18  12  77 W13       30.57R WCI   5
$$

IAZ004>006-015-016-023>025-035-036-090300-
   NORTH CENTRAL IOWA

CITY           SKY/WX    TMP DP  RH WIND       PRES   REMARKS
ALGONA *       MOCLDY    16  10  79 NW10G16   30.53R WCI   3
CLARION *      CLOUDY    18  10  73 NW17      30.53S WCI   2
ESTHERVILLE    MOCLDY    13   9  84 NW14      30.54R WCI  -2
FORT DODGE *   MOCLDY    18   7  62 NW7       30.56R WCI   8
MASON CITY     FLURRIES  17  10  74 NW16      30.51R WCI   2
WEBSTER CITY * FLURRIES  19  14  79 NW14      30.52S WCI   6
IOWA FALLS *   CLOUDY    20  13  72 NW20      30.53R WCI   5
$$

IAZ007>011-017>019-026>030-037>042-050>054-066-090300-
   NORTHEAST IOWA

CITY           SKY/WX    TMP DP  RH WIND       PRES   REMARKS
CEDAR RAPIDS   FLURRIES  21  17  84 NW12      30.49R WCI   9
CHARLES CITY * FLURRIES  18  10  73 NW16G26   30.50R WCI   3
CLINTON *      FLURRIES  21  15  78 W17       30.47S WCI   7
DECORAH *      CLOUDY    19  14  79 NW8G15    30.43R WCI   9
DUBUQUE        CLOUDY    19  13  77 W20       30.44R WCI   3
MONTICELLO *   CLOUDY    21  12  68 NW17      30.48R WCI   7
OELWEIN *      FLURRIES  19  12  73 NW21      30.48R WCI   3
WATERLOO       CLOUDY    20  13  74 NW13      30.51R WCI   7
$$

IAZ064-065-067-068-078-090300-
   EAST CENTRAL IOWA

CITY           SKY/WX    TMP DP  RH WIND       PRES   REMARKS
DAVENPORT      FLURRIES  21  15  78 NW17      30.49R WCI   7
IOWA CITY      FLURRIES  23  16  74 NW7       30.53R WCI  15
MUSCATINE *    CLOUDY    23  14  68 W8        30.53S WCI  14
QUAD CITIES    CLOUDY    23  13  65 NW14G23   30.49S WCI  11
$$

IAZ062-063-075>077-085>089-095>099-090300-
   SOUTHEAST IOWA

CITY           SKY/WX    TMP DP  RH WIND       PRES   REMARKS
BURLINGTON     CLOUDY    22  13  68 W9        30.53S WCI  12
FAIRFIELD *    CLOUDY    19  10  68 W8        30.54S WCI   9
FORT MADISON * CLOUDY    21  12  68 W9        30.55R WCI  11
KEOKUK *       CLOUDY    21  14  73 W8        30.55S WCI  12
OSKALOOSA *    CLOUDY    20  14  78 W9        30.55R WCI  10
CENTERVILLE *    N/A     16  10  79 W7        30.57S WCI   6
OTTUMWA        CLOUDY    21  11  65 W10       30.54S WCI  10
WASHINGTON *   CLOUDY    23  16  74 W10       30.53S WCI  12
$$

ABBREVIATIONS USED IN REMARKS
   TC - TEMPERATURES IN CELSIUS
  WCI - WIND CHILL INDEX
   HX - HEAT INDEX
  VSB - VISIBILITY
$$





USA.gov is the U.S. government's official web portal to all federal, state and local government web resources and services.